Location: Castellare
(42.4669°N, 9.4728°E)
Time: 06:35:36
(UTC+00:00)

STARLINK-1094 - Pass Details

Date: 17 February 2020
Orbit: 549 x 550 km, 53.0° (Epoch: 09 April)

Event Time Altitude Azimuth Distance (km) Brightness Sun altitude
Exits shadow 05:21:27 15° 271° (W) 1,508 5.2 -10.9°
Maximum altitude 05:24:25 37° 334° (NNW) 859 4.3 -10.3°
Drops below altitude 10° 05:28:19 10° 43° (NE) 1,831 6.8 -9.6°
Sets 05:30:41 0° 52° (NE) 2,728 7.9 -9.2°
